Wind_Speed
111 110 110 109 109 108 108 107 106 106 106 105 104 104 103 103 103 102 102 101 101 100 100 99 99 98 98 97 97 97 96 96 96 95 95 95 95 95 95 96 96 96 95 95 95 95 95 95 95 95 95 95 95 95 95 95 96 96 96 96 96 96 96 96 96 96 96 97 97 97 97 97 97 97 97 97 97 97 96 96 96 95 95 94 94 93
110 110 109 109 109 108 108 107 106 105 105 105 104 103 103 103 102 102 101 101 100 100 99 99 98 98 98 97 97 96 96 96 95 95 95 95 95 95 95 95 96 96 95 95 95 95 95 95 95 95 95 95 96 96 96 96 96 96 96 96 96 96 96 96 96 97 97 97 97 98 98 98 98 97 97 97 97 97 97 97 96 96 95 95 94 93
111 110 110 109 108 108 108 107 106 105 105 104 104 103 103 103 102 102 101 100 100 99 99 99 98 98 97 97 96 96 95 95 95 95 95 95 95 95 95 96 95 95 96 95 95 95 95 95 95 95 96 96 96 96 96 96 96 96 96 96 96 96 97 97 97 97 97 98 98 98 98 98 98 98 98 98 98 98 98 97 97 96 95 94 93 92
111 111 110 109 109 108 108 107 106 105 104 104 103 103 102 102 102 101 101 100 100 99 99 98 98 98 97 97 96 95 95 95 94 94 95 95 95 95 95 95 95 95 95 95 95 95 95 95 96 96 96 96 96 96 97 97 97 97 97 97 97 97 97 97 97 97 98 98 98 99 99 99 98 98 98 98 98 98 98 98 97 96 95 94 93 91
111 111 110 109 109 108 107 107 106 105 104 104 103 103 102 102 102 101 100 100 99 99 98 98 98 97 97 96 96 95 95 94 94 94 94 95 95 95 95 95 95 95 95 95 95 95 96 96 96 96 96 97 97 97 97 97 97 97 97 97 97 97 97 97 98 98 98 98 99 99 99 99 99 99 99 99 99 99 98 98 97 96 95 93 92 91
111 110 110 109 109 109 108 107 106 105 105 104 104 103 102 102 101 101 100 100 99 98 98 98 97 97 96 96 95 95 94 94 94 94 94 94 95 95 95 95 95 95 95 95 95 96 96 96 96 96 97 97 97 97 98 98 98 98 98 98 98 97 97 98 98 98 98 99 99 99 99 99 99 99 99 99 99 99 98 98 97 96 94 93 92 91
111 110 110 110 109 108 108 107 106 105 105 104 104 103 102 102 101 100 100 99 98 98 97 97 96 96 95 95 94 94 94 94 94 94 94 94 94 95 95 95 95 95 95 95 95 96 96 96 97 97 97 98 98 98 98 98 98 98 98 98 98 98 98 98 98 98 99 99 99 99 99 99 99 99 99 99 99 99 98 97 96 95 94 93 92 91
111 111 110 110 109 108 107 106 106 105 105 104 104 103 103 102 101 100 99 98 98 97 97 96 96 95 95 94 94 94 93 94 94 94 94 94 94 94 95 95 95 95 95 95 95 96 96 97 97 97 98 98 98 98 98 99 99 99 99 99 98 98 98 98 98 99 99 99 99 99 99 99 99 99 99 99 99 98 97 96 95 94 93 93 92 91
112 111 110 109 109 108 108 107 105 105 104 104 103 103 102 101 100 99 98 98 97 96 96 95 95 95 94 93 93 93 93 93 93 94 94 94 94 95 95 95 95 95 95 95 96 96 96 97 97 98 98 98 99 99 99 99 99 99 99 99 99 99 99 99 99 99 98 98 98 99 99 99 99 99 99 98 98 97 96 95 95 94 93 93 92 92
111 111 110 109 108 108 107 107 106 104 104 103 102 102 101 100 100 99 98 97 96 95 95 94 94 94 93 93 92 92 93 93 93 94 94 94 94 94 95 95 95 95 95 95 96 96 97 97 98 98 98 99 99 99 99 99 99 99 100 100 100 99 99 99 99 99 98 98 98 98 99 99 98 98 98 97 97 96 96 95 95 94 94 93 92 92
111 110 110 109 108 107 106 106 105 104 103 102 101 100 99 99 98 98 97 96 95 95 94 94 93 93 93 92 92 92 92 93 93 93 94 94 94 94 94 95 95 95 95 95 96 96 97 98 98 98 99 99 99 99 100 100 100 100 100 100 100 100 100 99 99 99 98 98 98 98 98 98 98 97 97 96 96 96 95 95 95 94 94 93 93 92
111 110 109 108 107 106 105 105 104 103 102 101 101 100 98 97 96 96 96 95 94 94 93 93 92 92 92 92 92 92 92 92 93 93 93 94 94 94 94 94 94 95 95 95 96 97 97 98 98 99 99 99 100 100 100 100 100 100 100 100 100 100 100 100 99 99 98 98 98 98 97 97 96 96 96 96 96 96 96 95 95 95 94 93 93 93
109 108 107 107 106 105 104 103 103 102 100 100 99 98 97 96 94 94 93 93 93 92 92 92 92 92 91 91 91 91 92 92 92 93 93 94 94 94 94 94 94 95 95 96 96 97 98 98 98 99 99 100 100 100 100 101 101 101 101 101 101 100 100 100 99 99 98 98 97 97 96 96 95 95 95 95 96 96 96 96 96 95 94 94 93 93
108 107 106 105 104 103 103 102 101 100 99 98 97 96 95 94 93 92 92 92 91 91 91 91 91 91 91 91 91 91 91 91 92 93 93 93 94 94 94 94 94 94 95 96 97 97 98 98 99 99 99 100 100 100 101 101 101 101 101 101 101 101 100 100 99 98 98 97 96 96 95 95 95 95 95 95 96 96 96 96 95 95 94 94 93 93
106 105 104 103 102 101 101 100 99 98 97 95 94 93 93 92 91 90 90 90 90 90 90 90 90 91 91 91 91 90 91 91 91 92 93 93 94 93 93 93 94 94 95 96 97 97 98 98 99 99 100 100 100 101 101 101 101 101 101 101 101 101 100 100 99 98 97 96 95 95 95 95 95 95 95 96 96 96 96 96 95 95 94 94 93 93
103 102 102 101 100 99 98 97 96 95 94 93 92 91 90 90 89 89 89 88 88 88 89 89 90 90 91 91 91 90 90 90 91 91 92 93 93 93 93 93 93 94 95 96 97 97 98 98 99 99 100 100 100 101 101 101 102 102 102 102 101 101 100 100 99 98 96 96 95 94 94 94 95 95 95 96 96 96 96 96 95 95 94 93 93 93
101 100 100 99 98 97 96 94 94 93 92 91 90 89 88 88 87 87 87 87 87 87 88 88 89 90 91 91 91 90 89 89 90 91 92 93 93 93 93 92 93 94 95 96 97 97 98 98 99 99 100 100 101 101 101 102 102 102 102 102 102 101 100 99 98 97 96 95 95 94 94 94 95 95 95 96 96 96 95 95 94 94 93 93 93 92
98 98 97 96 95 94 93 92 91 90 89 88 88 87 86 86 86 86 86 86 86 86 87 88 88 89 90 91 91 90 89 89 89 90 91 92 92 93 92 92 93 94 95 96 97 97 98 98 99 99 100 100 101 101 102 102 103 103 102 102 102 101 100 99 98 97 96 95 95 95 94 94 95 95 95 95 95 95 95 94 93 93 92 92 92 92
96 95 94 93 92 91 90 89 88 87 87 86 85 85 85 85 84 84 84 85 85 85 86 87 88 89 90 91 91 90 89 89 89 89 90 91 92 92 92 92 93 94 95 96 96 97 97 98 98 99 100 100 101 102 102 103 103 103 103 102 101 101 99 99 97 97 96 95 95 95 95 95 95 95 95 95 94 94 94 93 92 92 91 91 91 91
93 92 91 90 89 88 87 87 85 85 84 84 83 83 83 83 83 83 83 84 84 85 85 86 87 88 89 89 90 89 89 89 89 89 89 90 91 92 92 92 93 93 94 95 96 96 97 97 98 99 100 101 101 102 102 103 103 103 102 102 101 100 99 98 97 97 96 96 96 95 95 95 95 95 94 94 94 93 93 92 91 91 91 90 90 91
90 89 88 87 86 85 85 84 83 82 82 81 81 82 82 82 82 82 83 83 83 84 85 86 87 88 88 88 89 89 89 88 88 88 89 89 90 91 91 92 92 93 94 95 95 96 96 97 98 99 100 100 101 102 103 103 103 103 102 101 101 100 99 98 97 97 97 96 96 95 95 95 95 94 94 94 93 92 92 91 91 91 91 91 91 91
86 85 84 83 83 82 82 81 81 80 80 80 80 80 80 81 81 81 82 82 83 84 85 86 86 87 87 88 88 88 88 88 88 87 87 88 89 90 91 91 91 92 93 94 95 95 95 96 97 98 99 100 101 102 103 103 103 102 102 101 100 99 99 98 98 97 97 96 96 96 95 95 95 94 94 93 93 92 92 92 91 91 91 91 91 92
83 82 81 81 80 80 79 79 79 78 78 78 79 79 79 80 80 81 81 82 83 83 84 85 86 86 87 87 88 88 88 87 87 86 86 86 88 89 90 90 90 91 92 93 93 94 95 96 97 98 99 100 101 102 102 102 102 102 101 100 100 99 99 98 98 97 97 96 96 95 95 95 94 94 93 93 93 92 92 92 92 92 92 92 92 92
79 79 78 78 77 77 77 77 77 77 77 77 77 78 78 79 79 80 81 82 82 83 84 84 85 86 86 87 88 88 88 87 86 85 85 85 86 88 89 89 89 90 91 92 92 93 94 95 96 98 99 100 101 101 102 102 102 101 101 100 100 99 99 98 98 97 97 96 96 95 95 94 94 94 93 93 93 93 93 93 93 93 93 93 93 92
76 76 76 75 75 75 75 75 75 75 76 76 76 77 77 78 79 80 80 81 82 82 83 83 84 85 86 87 88 88 87 86 85 84 84 84 85 87 88 88 88 89 90 91 91 92 93 94 96 97 98 99 100 101 101 101 101 101 100 100 99 99 99 98 97 97 96 96 95 95 95 94 94 94 93 93 93 93 94 94 94 94 94 93 93 92
73 73 73 73 73 73 74 74 74 74 75 75 76 76 77 78 79 79 80 81 81 82 82 83 84 85 86 87 87 88 87 86 85 84 83 84 85 86 87 88 87 88 89 90 90 91 92 94 95 97 98 99 99 100 100 100 100 100 100 99 99 99 98 98 97 97 96 96 95 95 94 94 94 94 94 94 94 94 94 95 95 95 94 93 92 91
71 71 71 71 72 72 72 73 73 73 74 74 75 76 77 77 78 79 80 80 80 81 81 82 83 85 86 86 87 87 86 86 85 84 84 84 84 86 87 87 87 87 88 89 90 90 91 93 94 96 97 98 98 99 99 99 99 99 99 99 99 98 98 97 97 96 96 95 95 94 94 94 94 94 94 94 94 95 95 95 95 95 94 93 91 90
69 69 69 70 70 71 71 72 72 73 73 74 75 75 76 77 78 79 79 80 80 80 81 82 83 84 85 85 86 86 86 85 85 85 84 84 84 85 87 87 87 87 87 88 89 90 91 92 94 95 96 96 97 98 98 98 99 99 99 98 98 98 97 97 96 96 95 95 95 95 94 94 94 94 95 95 95 96 96 96 96 95 94 92 90 88
67 67 68 68 69 70 70 71 71 72 73 74 74 75 76 76 77 78 78 79 79 80 81 82 83 83 83 84 84 85 85 85 85 84 84 84 84 86 86 87 87 87 87 88 89 90 91 92 93 94 95 95 96 97 97 98 98 98 98 98 98 97 97 96 96 95 95 95 95 95 95 95 95 95 95 95 96 96 97 97 96 95 93 91 89 87
66 66 67 67 68 69 69 70 71 72 73 73 74 75 75 76 76 77 77 78 79 80 81 81 82 82 82 82 83 84 85 85 85 84 83 83 84 85 86 86 87 87 87 88 88 89 91 92 92 93 94 94 95 95 96 97 97 97 97 97 96 96 96 96 95 95 95 95 95 95 95 95 95 95 95 96 96 96 97 96 96 94 92 90 87 85
65 65 66 66 67 68 69 70 71 71 72 73 73 74 74 75 75 76 77 77 78 79 80 80 80 80 80 80 81 83 85 85 85 84 83 83 84 85 86 86 87 88 88 88 88 89 90 91 92 92 93 93 94 95 95 96 96 96 96 96 95 95 95 95 95 95 95 95 95 95 95 95 95 95 95 96 96 96 96 96 95 94 91 89 86 83
64 64 65 66 66 67 68 69 70 71 71 72 72 73 73 74 75 75 76 77 77 78 78 78 79 79 79 80 81 82 83 84 84 84 83 83 84 85 86 86 87 88 88 88 88 88 89 90 91 91 92 92 93 94 94 95 95 95 94 94 94 94 94 94 94 94 94 94 94 94 94 94 94 94 95 95 95 96 96 95 94 92 90 87 84 82
63 63 64 65 66 67 68 69 69 70 71 71 72 72 73 74 74 75 76 76 76 76 77 77 77 78 79 79 80 81 82 83 83 83 83 83 84 85 86 87 87 88 89 88 88 88 88 89 89 90 90 91 92 93 93 93 93 93 92 92 92 92 92 93 93 93 93 93 93 93 93 93 93 93 94 94 95 95 94 94 92 90 88 86 83 81
62 63 64 65 66 67 67 68 69 69 70 71 71 72 73 73 74 74 75 75 75 75 75 76 76 77 78 79 80 81 82 83 83 83 83 83 84 85 86 87 87 88 88 88 88 88 88 88 89 89 90 90 91 91 92 92 92 91 91 91 91 91 91 91 92 92 92 92 91 92 92 92 92 92 93 93 93 93 93 92 90 88 86 84 82 80
62 63 64 65 65 66 67 67 68 69 69 70 71 71 72 73 73 74 74 74 74 74 75 76 76 77 78 79 80 81 82 83 84 84 84 84 84 85 86 87 87 87 88 88 88 88 88 88 88 88 89 89 89 90 90 90 90 89 89 89 89 90 90 90 90 90 90 90 90 90 90 90 91 91 91 92 92 91 91 89 88 86 84 82 80 79
62 63 63 64 65 65 66 67 68 68 69 70 70 71 71 72 72 72 73 73 73 74 75 76 76 77 77 78 79 80 82 83 84 84 84 84 85 85 86 86 87 87 87 87 87 88 88 88 88 87 87 87 88 88 88 87 87 87 87 87 88 89 89 89 89 89 89 89 89 89 89 89 89 89 90 90 90 89 88 87 85 83 82 80 79 77
61 62 63 64 64 65 66 67 67 68 69 69 70 70 70 70 71 71 72 72 73 74 75 75 76 77 77 78 79 80 81 83 84 84 84 85 85 85 85 86 86 86 87 87 87 87 87 87 86 86 86 85 85 85 85 85 85 85 85 86 87 88 89 89 89 89 88 88 88 88 88 88 88 88 88 88 88 87 86 84 82 81 79 78 76 75
61 62 63 63 64 65 66 66 67 67 68 68 68 68 69 69 70 70 71 72 72 73 74 75 76 77 78 79 80 80 82 82 83 84 84 85 85 85 85 86 86 86 86 86 86 86 86 86 85 85 84 84 83 83 83 83 83 83 84 85 86 87 88 89 89 88 88 87 87 87 86 86 86 87 87 87 86 84 83 81 79 77 76 75 73 72
61 62 62 63 64 64 65 65 66 66 66 66 66 67 68 68 69 70 70 71 72 73 73 75 76 77 78 79 80 81 82 83 83 84 84 84 84 84 85 85 86 86 86 86 86 85 85 84 84 83 83 82 82 81 81 82 82 82 83 84 85 86 87 88 88 87 87 86 86 86 85 85 85 85 85 85 83 82 80 78 76 74 73 71 70 69
61 61 62 63 63 63 63 64 64 64 64 65 66 66 67 68 68 69 70 70 71 72 73 75 76 77 78 80 81 81 82 83 83 84 84 84 84 84 84 85 85 85 85 85 85 84 84 83 83 82 81 80 80 80 81 81 82 82 83 84 85 86 87 87 87 87 86 85 85 85 84 84 84 84 83 82 81 79 78 76 73 71 69 68 67 65
60 61 61 61 61 61 62 62 62 63 64 64 65 65 66 67 67 68 70 71 72 73 74 75 76 78 79 80 81 82 82 83 83 84 84 84 84 84 84 84 84 85 85 84 84 84 83 83 82 82 81 80 80 80 81 81 82 82 83 84 84 85 86 86 86 86 85 85 84 83 83 82 82 81 81 80 79 77 75 73 71 69 67 65 64 62
59 59 59 59 59 60 60 61 62 62 63 63 64 64 65 66 67 68 70 71 72 73 74 75 77 78 79 80 81 82 82 83 83 83 84 84 84 84 84 84 84 84 84 84 84 83 83 83 83 82 82 81 81 81 81 82 82 83 83 84 84 85 85 85 85 84 84 84 83 82 81 81 80 79 79 78 76 75 73 71 68 66 65 63 61 60
57 57 57 57 58 59 60 60 61 61 62 62 63 64 65 66 67 69 70 71 73 74 75 76 77 78 79 80 81 82 83 83 83 83 83 84 84 84 84 84 83 83 83 83 83 83 83 83 83 83 83 82 82 82 82 82 82 83 83 84 84 84 84 84 83 83 83 82 82 81 80 79 78 77 76 75 74 73 71 69 66 64 63 61 59 57
55 55 56 57 57 58 59 59 60 61 61 62 63 64 66 67 68 69 71 72 73 74 75 76 77 78 79 80 81 82 83 83 83 83 83 83 83 83 83 83 83 83 83 83 83 84 84 84 84 84 84 83 83 83 82 82 82 83 83 84 84 84 84 83 82 82 81 81 80 79 78 77 75 74 74 73 73 71 69 67 64 62 60 59 57 55
54 54 55 56 57 57 58 59 60 61 62 63 64 65 66 68 69 70 71 72 74 75 76 76 77 78 79 80 81 82 82 83 83 83 83 83 82 82 82 82 83 83 83 83 83 84 84 85 85 85 84 84 83 82 82 82 82 82 83 83 83 83 82 82 81 80 80 79 79 77 76 75 73 72 72 71 71 69 67 65 62 60 58 56 55 53
53 54 54 55 56 57 58 59 60 61 63 64 65 66 67 68 69 71 72 73 74 75 76 77 77 78 79 80 81 81 82 82 82 82 82 82 82 82 82 82 82 83 83 83 84 84 84 85 85 85 84 84 83 82 81 81 82 82 82 82 82 82 81 81 80 79 79 78 77 76 74 72 71 70 70 69 69 67 65 63 60 58 56 54 52 51
52 53 54 55 56 57 58 60 61 62 64 65 66 67 68 69 70 71 72 73 74 75 76 77 77 78 79 79 80 80 80 81 81 81 82 82 82 82 82 82 83 83 83 83 84 84 85 85 85 85 84 83 82 81 81 80 81 81 82 82 81 81 80 80 79 78 77 77 76 74 72 71 69 68 67 67 66 65 63 61 58 56 54 52 50 48
52 53 55 56 57 58 60 61 62 63 64 66 67 68 69 70 71 72 73 74 74 75 76 77 78 78 79 79 79 79 79 80 80 81 81 81 82 82 82 82 83 83 83 83 84 84 84 85 85 84 84 82 81 81 80 80 80 81 81 80 80 79 79 78 77 77 76 75 74 72 71 69 68 67 66 64 63 62 60 58 56 54 51 49 48 46
53 54 55 57 58 59 61 62 63 64 65 66 68 69 70 71 71 72 73 74 75 75 76 77 77 78 78 78 79 79 79 79 80 80 80 81 81 82 82 82 82 82 83 83 83 83 83 84 84 84 83 82 81 80 79 79 79 79 79 79 78 78 77 76 75 75 74 74 72 71 69 67 66 65 64 62 61 59 57 55 53 51 49 47 45 44
54 55 57 58 59 60 62 63 64 65 66 67 68 69 70 71 72 72 73 74 74 75 75 76 76 77 78 78 78 78 79 79 79 80 80 80 81 81 81 81 81 81 81 82 82 82 82 83 83 83 82 81 80 79 78 78 77 77 77 77 76 76 75 74 74 73 73 72 70 69 67 66 64 63 61 60 58 56 54 52 50 48 46 44 42 41
55 57 58 59 60 61 63 64 65 66 67 68 69 70 71 72 72 73 73 73 74 74 75 75 76 76 77 77 78 78 78 79 79 79 80 80 80 80 80 80 80 80 80 80 80 81 81 82 82 83 82 80 79 78 77 77 76 75 75 75 74 74 73 72 72 71 71 70 69 67 66 64 63 61 59 57 55 53 51 49 47 45 43 42 40 38
Wind_Direction
280 281 281 282 282 283 284 284 285 285 286 287 287 288 289 289 290 290 291 292 292 293 293 294 294 294 294 295 295 295 295 295 296 296 296 296 296 296 296 296 296 296 296 296 296 295 295 295 295 296 296 296 297 297 297 297 297 298 298 298 298 298 298 298 299 299 299 299 299 299 299 299 299 299 299 299 298 298 298 298 297 297 296 296 295 295
281 281 282 282 283 283 284 285 285 286 286 287 288 288 289 289 290 290 291 292 292 293 293 293 294 294 294 294 295 295 295 295 295 295 295 295 295 295 295 296 296 296 296 295 295 295 295 295 295 296 296 296 297 297 297 297 297 298 298 298 298 298 298 299 299 299 299 299 299 299 299 299 299 299 299 299 299 298 298 297 297 296 296 296 295 294
281 282 282 283 283 284 284 285 285 286 287 287 288 288 289 289 290 291 291 292 292 293 293 293 294 294 294 294 294 294 295 295 295 295 295 295 295 295 295 295 296 296 295 295 295 295 295 295 296 296 296 297 297 297 297 297 298 298 298 298 298 298 299 299 299 299 299 299 299 299 299 299 299 299 299 299 298 298 298 297 297 296 296 295 295 294
281 282 282 283 283 284 284 285 286 286 287 287 288 288 289 289 290 291 291 292 292 292 293 293 293 293 294 294 294 294 294 294 294 294 295 295 295 295 295 295 295 295 295 295 295 295 295 295 296 296 297 297 297 297 297 297 298 298 298 298 298 299 299 299 299 299 299 299 299 299 300 300 300 299 299 299 298 298 298 297 297 296 296 295 294 294
281 282 282 283 284 284 285 285 286 286 287 287 288 288 289 289 290 291 291 292 292 292 292 293 293 293 293 293 294 294 294 294 294 294 294 294 295 295 295 295 295 295 295 295 295 295 295 296 296 296 297 297 297 297 297 298 298 298 298 298 298 299 299 299 299 299 299 299 300 300 300 300 300 299 299 299 298 298 297 297 296 296 295 295 294 293
281 282 282 283 283 284 285 285 286 286 287 287 288 288 289 289 290 290 291 291 292 292 292 292 292 293 293 293 293 293 293 294 294 294 294 294 294 295 295 295 295 294 294 295 295 295 296 296 296 297 297 297 297 297 297 298 298 298 298 298 299 299 299 299 299 299 299 300 300 300 300 300 300 299 299 299 298 298 297 297 296 296 295 295 294 294
281 282 282 283 283 284 285 285 286 286 287 287 288 288 289 289 290 290 291 291 291 292 292 292 292 292 292 292 293 293 293 293 294 294 294 294 294 294 294 294 294 294 294 295 295 296 296 296 297 297 297 297 297 297 298 298 298 298 298 299 299 299 299 299 299 299 300 300 300 300 300 300 299 299 299 298 298 297 297 297 296 296 295 295 294 294
281 282 282 283 283 284 284 285 286 286 287 287 288 288 289 289 290 290 290 291 291 291 291 291 292 292 292 292 292 293 293 293 293 293 294 294 294 294 294 294 294 294 295 295 295 296 296 296 297 297 297 297 297 298 298 298 298 298 299 299 299 299 299 299 299 299 300 300 300 300 300 299 299 299 299 298 298 297 297 297 296 296 295 295 295 295
281 281 282 282 283 284 284 285 285 286 286 287 287 288 289 289 290 290 290 290 291 291 291 291 291 291 291 292 292 292 293 293 293 293 293 294 294 294 294 294 294 294 295 295 296 296 296 297 297 297 297 297 297 298 298 298 298 299 299 299 299 299 299 299 299 300 300 300 300 300 300 299 299 299 298 298 298 297 297 297 296 296 296 296 296 295
281 281 282 282 283 283 284 285 285 286 286 287 287 288 288 289 289 290 290 290 290 290 290 290 291 291 291 291 292 292 292 293 293 293 293 293 294 294 294 294 294 295 295 296 296 296 296 297 297 297 297 297 298 298 298 298 299 299 299 299 299 299 299 299 300 300 300 300 300 300 300 299 299 299 298 298 298 298 297 297 297 297 297 297 296 296
280 281 282 282 283 283 284 284 285 286 286 287 287 288 288 288 289 289 290 290 290 290 290 290 290 291 291 291 291 292 292 292 293 293 293 293 293 293 293 294 294 295 295 296 296 296 296 297 297 297 297 298 298 298 298 298 299 299 299 299 299 299 299 299 300 300 300 300 300 300 300 299 299 299 299 299 298 298 298 298 298 298 297 297 297 297
280 281 282 282 283 283 284 284 285 285 286 286 287 287 288 288 288 289 289 289 289 289 290 290 290 290 290 291 291 292 292 292 292 293 293 293 293 293 294 294 295 295 296 296 296 296 297 297 297 297 297 298 298 298 298 299 299 299 299 299 299 299 299 300 300 300 300 300 300 300 300 300 300 300 299 299 299 299 299 298 298 298 298 298 298 297
280 281 282 282 283 283 284 284 285 285 286 286 287 287 288 288 288 288 288 289 289 289 289 289 290 290 290 290 291 291 292 292 292 292 293 293 293 293 294 294 295 296 296 296 296 296 297 297 297 297 298 298 298 298 298 299 299 299 299 299 299 300 300 300 300 301 301 301 301 301 301 300 300 300 300 300 300 299 299 299 299 299 298 298 298 298
280 281 282 282 283 283 284 284 284 285 285 286 286 287 287 287 288 288 288 288 288 288 289 289 289 289 290 290 290 291 291 292 292 292 292 293 293 294 294 295 296 296 296 296 296 297 297 297 297 297 298 298 298 298 299 299 299 299 299 299 300 300 300 300 301 301 301 301 301 301 301 301 301 301 301 300 300 300 299 299 299 299 299 299 299 298
281 281 282 282 283 283 283 284 284 285 285 286 286 286 287 287 287 287 287 287 288 288 288 289 289 289 289 290 290 291 291 292 292 292 292 293 293 294 295 295 296 296 296 296 296 297 297 297 297 297 298 298 298 298 299 299 299 299 299 300 300 301 301 301 302 302 302 302 302 302 302 302 302 301 301 301 300 300 300 300 299 299 299 299 299 299
281 281 282 282 282 283 283 284 284 285 285 285 286 286 286 286 286 287 287 287 287 288 288 288 289 289 289 289 290 290 291 291 292 292 292 293 294 295 295 296 296 296 296 296 296 296 297 297 297 298 298 298 299 299 299 299 300 300 300 300 301 301 302 302 303 303 303 303 303 303 302 302 302 302 301 301 301 300 300 300 300 300 300 299 299 299
281 281 281 282 282 283 283 283 284 284 285 285 285 285 286 286 286 286 286 287 287 287 288 288 289 289 289 290 290 290 291 291 292 292 292 293 294 295 296 296 296 296 296 296 296 296 297 297 298 298 298 299 299 299 300 300 300 300 301 301 302 302 303 303 303 303 303 303 303 303 303 302 302 302 301 301 301 300 300 300 300 300 300 299 299 299
281 281 281 282 282 282 283 283 284 284 284 285 285 285 285 285 285 285 286 286 287 287 288 288 288 289 289 290 290 290 291 291 292 292 293 293 294 295 296 296 296 296 296 296 296 297 297 298 298 299 299 299 300 300 300 300 301 301 302 302 303 303 303 304 304 304 304 303 303 303 303 303 302 302 301 301 300 300 300 300 300 300 299 299 299 298
280 280 281 281 282 282 283 283 283 284 284 284 284 284 284 284 285 285 285 286 286 287 287 288 288 289 289 289 290 291 291 291 292 292 293 294 295 295 295 296 296 296 296 296 297 297 298 299 299 300 300 300 300 300 301 301 301 302 302 303 303 304 304 304 304 304 304 304 304 303 303 303 302 302 301 301 300 300 300 300 300 299 299 299 298 298
280 280 281 281 282 282 282 283 283 283 283 283 283 283 284 284 284 285 285 286 286 287 287 288 288 288 289 289 290 291 291 291 292 293 294 294 295 295 295 295 296 296 296 297 297 298 299 299 300 300 300 300 301 301 301 301 302 302 303 303 304 304 304 304 304 304 304 304 304 304 303 303 302 302 301 301 301 300 300 300 300 299 299 299 298 298
280 280 280 281 281 282 282 282 282 282 282 282 283 283 283 284 284 285 285 286 286 287 287 287 288 288 289 289 290 290 291 292 292 293 294 294 295 295 295 296 296 296 297 297 298 299 299 300 300 300 300 301 301 301 301 302 302 303 303 304 304 304 304 304 304 304 304 304 304 304 304 303 302 302 301 301 301 301 300 300 300 300 300 299 299 299
279 280 280 280 281 281 281 281 281 281 282 282 282 283 283 284 284 285 285 286 286 287 287 287 288 288 289 289 290 290 291 292 293 293 294 295 295 295 295 296 296 297 297 298 298 299 300 300 300 300 301 301 301 301 302 302 303 303 304 304 304 304 304 304 304 304 304 304 304 304 304 303 303 302 302 302 301 301 301 301 301 301 300 300 300 300
279 279 280 280 280 280 280 281 281 281 281 282 282 282 283 284 284 285 285 286 286 286 287 287 288 288 289 289 290 290 291 292 293 294 294 295 295 295 295 296 296 297 297 298 299 299 300 300 300 301 301 301 301 302 302 303 303 303 304 304 304 304 304 304 305 305 305 305 304 304 304 303 303 303 302 302 302 302 302 302 302 302 302 302 302 302
279 279 279 279 279 279 280 280 280 281 281 281 282 282 283 283 284 285 285 285 286 286 287 287 288 288 289 289 290 291 291 292 293 294 294 294 294 295 295 296 296 297 298 298 299 300 300 300 300 301 301 301 302 302 303 303 303 303 304 304 304 304 304 305 305 305 305 305 304 304 304 304 303 303 303 303 303 303 303 303 303 303 303 303 303 303
278 278 278 278 279 279 279 279 280 280 281 281 282 282 283 284 284 284 285 285 286 286 287 288 288 288 289 290 290 291 292 293 294 294 294 294 294 294 295 296 296 297 298 299 299 300 300 300 301 301 301 301 302 302 303 303 303 303 304 304 304 304 305 305 305 305 305 305 305 304 304 304 304 304 304 304 304 304 304 304 304 303 304 304 304 304
277 277 277 278 278 278 279 279 280 280 281 281 282 283 283 284 284 284 285 285 286 287 287 288 288 289 290 290 291 292 293 293 293 294 294 294 294 295 295 296 297 297 298 299 299 300 300 300 300 301 301 302 302 302 303 303 303 303 304 304 304 305 305 305 305 305 305 305 305 305 305 305 305 305 305 305 305 305 305 304 304 304 305 305 305 306
276 276 277 277 277 278 278 279 280 280 281 282 282 283 283 284 284 285 285 286 286 287 288 288 289 289 290 291 292 292 293 293 293 294 294 294 295 295 296 296 297 298 298 299 299 300 300 300 300 301 301 302 302 302 303 303 303 303 304 304 305 305 305 305 306 306 306 306 306 306 306 306 306 306 306 306 306 306 305 305 305 305 306 306 307 307
275 276 276 277 277 278 278 279 280 280 281 282 282 283 283 284 284 285 285 286 287 288 288 288 289 290 291 291 292 293 293 293 294 294 295 295 295 296 296 297 298 298 299 299 299 300 300 300 300 301 301 302 302 302 303 303 303 304 304 305 305 305 305 306 306 306 306 306 306 306 306 307 307 307 307 307 306 306 306 306 306 306 307 307 308 308
275 275 276 276 277 278 279 279 280 281 281 282 282 283 283 284 285 285 286 287 287 288 288 289 290 290 291 292 293 293 293 293 294 294 295 296 296 296 297 298 298 298 299 299 299 300 300 300 301 301 302 302 302 303 303 303 304 304 304 305 305 306 306 306 307 307 307 307 307 307 307 307 308 308 307 307 307 307 307 307 307 307 307 308 308 308
275 275 276 277 277 278 279 280 280 281 281 282 283 283 284 285 285 286 287 287 288 288 289 289 290 291 292 292 293 293 293 293 294 295 296 296 297 297 298 298 298 298 299 299 299 300 300 300 301 301 302 302 303 303 303 303 304 304 305 305 306 306 306 307 307 307 307 307 307 308 308 308 308 308 308 308 307 307 307 307 307 307 308 308 308 308
275 276 276 277 278 279 279 280 280 281 282 282 283 284 284 285 286 286 287 287 288 289 289 290 291 292 292 292 293 293 293 294 295 296 296 297 297 297 298 298 298 298 299 299 299 300 300 301 301 302 302 303 303 303 303 304 304 305 305 306 306 306 307 307 307 307 307 307 308 308 308 308 308 308 308 308 307 307 307 307 307 308 308 308 308 308
275 276 277 277 278 279 279 280 281 281 282 283 284 284 285 285 286 286 287 288 288 289 290 291 292 292 292 292 293 293 294 294 295 296 297 297 297 298 298 298 298 298 299 299 300 300 301 301 301 302 302 303 303 303 303 304 304 305 305 306 306 306 307 307 307 307 307 307 308 308 308 308 308 308 308 308 307 307 307 307 307 308 308 308 308 308
276 276 277 277 278 279 279 280 281 282 282 283 284 284 285 285 286 287 287 288 289 290 291 291 292 292 292 292 293 293 294 295 295 296 297 297 297 297 298 298 298 299 299 300 300 300 301 301 301 302 302 303 303 303 304 304 304 305 305 306 306 306 307 307 307 307 307 307 307 308 308 308 308 308 308 307 307 307 307 307 307 308 308 309 308 308
276 276 277 278 278 279 280 280 281 282 283 283 284 285 285 286 286 287 288 289 290 290 291 291 292 292 293 293 294 294 294 295 295 296 297 297 297 297 298 298 298 299 300 300 301 301 301 301 302 302 302 303 303 303 303 304 304 305 305 306 306 306 306 306 306 307 307 307 307 307 308 308 308 307 307 307 307 307 307 307 308 308 309 309 308 308
276 277 277 278 279 279 280 281 282 282 283 284 284 285 286 286 287 288 289 290 290 291 291 291 292 292 293 294 294 295 295 295 296 296 297 297 297 298 298 298 299 300 300 300 301 301 301 302 302 302 302 303 303 303 303 304 304 305 305 306 306 306 306 306 306 306 307 307 307 307 308 308 307 307 307 307 307 307 307 307 308 308 309 309 308 308
276 277 278 278 279 280 281 281 282 283 283 284 285 286 286 287 288 289 290 290 291 291 291 292 292 293 293 294 294 295 295 295 296 296 297 297 298 298 299 299 300 300 300 301 301 301 301 301 302 302 302 302 303 303 303 304 304 305 305 306 306 306 306 306 306 306 307 307 307 307 307 308 307 307 307 307 307 307 307 308 308 309 309 309 308 307
277 277 278 279 280 281 281 282 283 283 284 285 286 287 288 288 289 290 290 290 291 291 292 292 293 293 293 294 294 294 295 295 296 297 297 298 298 299 299 299 300 300 300 301 301 301 301 301 301 302 302 302 302 303 303 304 305 305 305 306 306 306 306 306 306 307 307 307 308 308 308 308 308 308 307 307 307 307 307 308 308 309 309 308 308 307
277 278 279 279 280 281 282 282 283 284 285 286 287 288 288 289 289 290 290 291 291 292 292 293 293 293 293 294 294 294 295 295 296 297 297 298 298 299 299 300 300 300 300 301 301 301 301 301 301 302 302 302 302 303 304 304 305 305 306 306 306 306 306 307 307 307 307 308 308 308 308 308 308 308 307 307 307 307 308 308 308 308 308 308 307 307
278 279 279 280 281 282 282 283 284 285 286 287 288 288 289 289 290 290 291 291 292 292 293 293 293 293 294 294 294 295 295 296 297 297 298 298 299 299 300 300 300 300 300 301 301 301 301 301 301 302 302 302 303 304 304 305 305 306 306 307 307 307 307 307 307 308 308 308 308 308 308 309 308 308 308 307 308 308 308 308 308 308 308 308 307 307
279 279 280 281 282 283 284 285 285 286 287 288 288 289 289 290 290 291 291 292 292 292 292 293 293 294 294 294 295 296 296 297 297 298 298 299 299 299 300 300 300 301 301 301 301 301 302 302 302 302 303 303 304 305 305 306 306 307 307 307 307 308 308 308 308 308 309 309 309 309 309 309 309 308 308 308 308 308 308 308 308 308 308 308 308 307
279 280 281 282 283 284 285 285 286 287 287 288 289 289 290 290 291 291 292 292 292 292 292 293 294 294 295 295 296 296 297 297 298 298 299 299 300 300 300 300 301 301 301 302 302 302 302 303 303 303 304 304 305 306 306 307 307 308 308 308 308 308 308 309 309 309 309 309 309 309 309 309 309 309 309 309 309 309 309 309 309 309 309 309 308 307
281 282 283 284 284 285 286 286 287 287 288 289 289 290 291 291 291 292 292 292 292 293 293 294 294 295 296 296 297 297 298 298 299 299 299 300 300 301 301 301 301 302 302 302 303 303 303 304 304 305 305 306 306 307 307 308 308 309 309 309 309 309 309 309 309 309 310 310 310 310 310 310 309 309 310 310 310 310 309 310 310 310 310 310 309 308
282 283 284 285 285 286 286 287 288 288 289 289 290 290 290 291 291 291 292 292 293 293 294 295 295 296 297 297 298 298 298 299 299 300 300 300 301 301 302 302 302 303 303 303 304 304 304 305 305 306 306 307 307 308 308 309 309 310 310 310 310 310 310 310 310 310 310 310 310 310 310 310 310 310 311 311 311 310 310 311 311 312 311 311 310 309
283 284 285 285 286 287 287 288 289 289 289 290 290 290 290 291 291 292 292 293 293 294 295 296 296 297 297 298 298 299 299 299 300 300 301 301 301 302 302 303 303 303 304 304 305 305 305 306 306 306 307 307 308 308 309 310 310 311 311 311 311 311 310 310 310 311 310 310 310 310 310 311 311 312 312 312 312 311 311 312 312 312 312 311 310 309
284 285 286 287 287 288 288 289 289 289 289 290 290 290 291 291 292 292 293 294 294 295 296 296 297 297 298 298 298 299 300 300 300 301 301 302 302 302 303 303 304 304 305 305 306 306 306 306 307 307 307 308 308 309 310 311 311 311 311 311 311 311 311 311 311 311 311 311 311 311 311 312 313 313 313 313 312 312 312 313 313 313 312 311 310 310
286 286 287 288 288 288 289 289 289 289 289 290 290 291 291 292 293 293 294 295 295 296 297 297 298 298 298 299 299 300 300 301 301 302 302 303 303 303 304 304 305 305 306 306 306 306 307 307 307 307 308 308 309 310 311 311 312 312 312 312 312 312 312 312 312 312 312 312 312 312 312 313 314 314 314 314 313 313 313 313 313 313 312 311 311 310
287 287 288 288 288 288 288 288 289 289 290 290 291 291 292 293 294 294 295 296 296 297 297 298 298 298 299 299 300 300 301 301 302 302 303 303 304 304 305 305 305 306 306 306 307 307 307 307 307 308 308 309 310 311 312 312 313 313 312 312 312 312 312 312 313 313 313 313 312 313 313 314 315 315 314 314 313 313 313 314 313 313 312 311 311 310
287 287 287 288 288 288 288 289 289 290 290 291 292 292 293 294 295 295 296 297 297 298 298 298 299 299 299 300 300 301 301 302 302 303 303 304 304 305 305 306 306 306 307 307 307 307 308 308 308 308 309 310 311 312 313 313 313 313 313 313 313 313 313 313 313 313 313 313 313 313 314 315 316 315 315 314 314 314 314 314 313 312 312 311 311 310
287 287 287 288 288 288 289 289 290 291 291 292 293 294 294 295 296 296 297 297 298 298 299 299 299 300 300 301 301 302 302 302 303 304 304 304 305 305 306 306 307 307 307 308 308 308 308 308 309 309 310 311 312 312 313 313 314 313 313 313 313 313 313 314 314 314 313 313 314 314 315 316 316 316 315 315 315 314 314 313 313 312 312 311 311 310
287 287 287 288 288 289 289 290 291 292 293 293 294 295 295 296 297 297 298 298 299 299 299 300 300 301 301 301 302 302 303 303 304 304 305 305 305 306 306 307 307 308 308 308 309 309 309 309 309 310 310 311 312 313 313 314 314 313 313 313 313 313 314 314 314 314 314 314 314 315 316 316 316 316 315 315 315 314 314 313 312 312 312 311 311 311
286 287 287 288 289 290 290 291 292 293 294 295 295 296 297 297 298 298 298 299 299 300 300 300 301 301 302 302 303 303 304 304 304 305 305 306 306 306 307 307 308 308 309 309 309 309 310 310 310 311 311 312 313 313 313 314 314 314 314 314 314 314 315 315 315 315 315 315 315 316 317 316 316 316 316 315 315 314 313 313 312 312 312 312 312 311
Height
10566 10565 10565 10565 10564 10563 10562 10561 10561 10561 10558 10557 10556 10555 10553 10551 10549 10547 10545 10543 10542 10540 10538 10536 10534 10532 10530 10528 10526 10524 10521 10519 10517 10514 10512 10509 10506 10504 10501 10499 10496 10494 10491 10489 10486 10483 10481 10478 10476 10474 10471 10469 10467 10465 10462 10460 10457 10455 10453 10451 10448 10446 10443 10441 10437 10435 10432 10429 10427 10424 10422 10419 10417 10415 10412 10411 10408 10406 10403 10401 10399 10397 10395 10392 10391 10389
10560 10559 10558 10557 10557 10556 10555 10554 10554 10554 10552 10551 10549 10548 10547 10545 10542 10541 10539 10537 10536 10534 10532 10529 10527 10526 10524 10522 10519 10517 10516 10513 10511 10508 10506 10502 10500 10497 10495 10492 10489 10487 10484 10482 10479 10476 10474 10471 10469 10467 10465 10462 10461 10458 10456 10453 10451 10448 10446 10444 10441 10439 10436 10434 10431 10428 10425 10422 10419 10417 10414 10412 10409 10407 10404 10402 10399 10397 10395 10392 10390 10388 10386 10384 10382 10380
10553 10552 10551 10551 10551 10550 10549 10547 10547 10547 10547 10545 10543 10542 10541 10539 10536 10534 10532 10531 10529 10527 10526 10523 10521 10519 10517 10515 10513 10511 10509 10507 10504 10502 10499 10496 10494 10491 10488 10486 10483 10480 10477 10475 10472 10470 10467 10465 10462 10461 10458 10456 10453 10451 10449 10446 10444 10441 10439 10437 10434 10432 10429 10427 10424 10421 10417 10415 10412 10409 10406 10404 10401 10399 10396 10394 10391 10389 10386 10384 10381 10379 10377 10375 10373 10371
10546 10546 10544 10544 10544 10544 10542 10541 10541 10540 10539 10539 10537 10536 10534 10532 10531 10528 10527 10525 10523 10521 10519 10517 10515 10513 10511 10509 10507 10505 10503 10501 10498 10496 10492 10490 10487 10484 10482 10479 10476 10474 10471 10468 10466 10463 10461 10458 10456 10454 10451 10449 10446 10444 10441 10439 10437 10434 10432 10430 10427 10425 10422 10419 10417 10414 10411 10407 10404 10401 10399 10396 10394 10391 10388 10386 10382 10380 10377 10375 10372 10370 10368 10366 10364 10362
10539 10539 10538 10537 10537 10536 10535 10535 10535 10534 10532 10532 10531 10529 10527 10526 10524 10522 10521 10519 10517 10515 10512 10511 10509 10507 10504 10502 10500 10498 10496 10494 10491 10489 10486 10484 10481 10478 10475 10472 10469 10467 10464 10461 10459 10456 10454 10452 10449 10447 10444 10442 10439 10437 10434 10432 10429 10427 10425 10423 10421 10418 10416 10412 10409 10406 10403 10400 10397 10394 10391 10389 10386 10383 10380 10377 10374 10371 10369 10366 10364 10361 10359 10357 10355 10353
10533 10533 10532 10531 10531 10529 10529 10528 10528 10527 10526 10525 10524 10522 10521 10520 10518 10516 10514 10512 10511 10509 10506 10504 10502 10500 10498 10496 10494 10492 10489 10487 10485 10482 10479 10477 10474 10471 10469 10466 10462 10460 10457 10454 10452 10450 10447 10445 10442 10440 10437 10434 10432 10429 10427 10425 10422 10420 10418 10416 10413 10411 10408 10406 10402 10399 10396 10393 10390 10387 10384 10381 10378 10375 10372 10369 10366 10362 10360 10357 10354 10352 10350 10348 10346 10344
10526 10526 10526 10526 10524 10523 10522 10522 10522 10521 10520 10518 10516 10516 10514 10513 10512 10510 10508 10506 10504 10502 10500 10498 10496 10494 10491 10489 10487 10485 10483 10481 10478 10476 10472 10470 10467 10465 10462 10459 10456 10453 10451 10448 10446 10443 10441 10438 10436 10433 10430 10427 10425 10422 10420 10417 10415 10412 10411 10408 10406 10404 10401 10398 10396 10392 10389 10386 10383 10380 10377 10374 10371 10367 10364 10361 10357 10354 10351 10349 10346 10343 10341 10338 10336 10334
10520 10519 10519 10519 10518 10517 10516 10516 10516 10515 10514 10512 10511 10509 10507 10506 10505 10503 10501 10499 10497 10496 10494 10491 10489 10487 10485 10483 10481 10479 10476 10474 10471 10469 10466 10463 10461 10458 10456 10452 10449 10447 10444 10442 10439 10437 10434 10431 10429 10426 10423 10421 10417 10415 10412 10411 10408 10406 10403 10401 10399 10396 10394 10391 10388 10386 10382 10379 10376 10373 10370 10366 10363 10360 10356 10352 10349 10346 10342 10339 10337 10334 10331 10329 10327 10325
10514 10513 10512 10512 10512 10511 10510 10509 10508 10509 10508 10507 10505 10503 10501 10499 10497 10496 10494 10492 10491 10489 10487 10485 10482 10479 10478 10476 10475 10472 10470 10467 10464 10462 10459 10456 10454 10451 10449 10446 10443 10441 10438 10436 10433 10431 10427 10424 10422 10419 10416 10413 10411 10408 10406 10403 10401 10398 10396 10393 10391 10389 10386 10384 10381 10378 10375 10372 10369 10366 10362 10359 10355 10352 10348 10344 10341 10337 10334 10331 10327 10324 10322 10319 10317 10315
10508 10507 10506 10505 10505 10505 10504 10502 10501 10501 10501 10501 10499 10497 10496 10494 10491 10489 10487 10485 10484 10482 10481 10478 10476 10473 10471 10469 10468 10466 10464 10461 10458 10456 10452 10450 10447 10444 10442 10439 10437 10434 10432 10429 10427 10424 10421 10417 10414 10412 10409 10406 10403 10401 10398 10396 10393 10391 10388 10386 10383 10381 10379 10376 10373 10371 10367 10364 10361 10358 10354 10351 10347 10343 10339 10336 10332 10328 10324 10321 10318 10315 10312 10310 10307 10305
10501 10501 10500 10499 10499 10498 10499 10497 10496 10494 10494 10494 10492 10491 10489 10488 10486 10483 10481 10478 10476 10474 10473 10471 10469 10467 10465 10462 10461 10459 10457 10454 10451 10449 10446 10444 10441 10438 10436 10433 10431 10428 10426 10423 10420 10417 10414 10411 10407 10404 10401 10399 10396 10393 10391 10388 10386 10383 10381 10378 10376 10373 10371 10368 10366 10363 10360 10357 10354 10350 10346 10342 10338 10334 10330 10326 10322 10318 10314 10311 10308 10305 10302 10300 10297 10296
10494 10494 10494 10493 10492 10492 10491 10491 10489 10489 10488 10487 10485 10483 10482 10481 10480 10478 10475 10472 10469 10467 10466 10464 10462 10460 10459 10457 10454 10452 10451 10448 10445 10442 10439 10437 10434 10432 10429 10427 10424 10422 10419 10416 10413 10409 10406 10403 10401 10397 10394 10391 10389 10386 10383 10381 10378 10376 10372 10370 10367 10365 10362 10360 10357 10355 10352 10349 10346 10341 10337 10333 10329 10325 10321 10317 10312 10309 10305 10302 10299 10296 10293 10291 10288 10286
10488 10487 10487 10487 10486 10485 10484 10484 10482 10482 10481 10480 10479 10477 10475 10474 10473 10472 10469 10466 10464 10461 10459 10457 10454 10452 10451 10450 10449 10446 10444 10441 10439 10436 10433 10430 10427 10426 10423 10421 10419 10416 10412 10409 10406 10402 10399 10396 10393 10390 10387 10384 10381 10378 10376 10373 10371 10367 10365 10362 10359 10357 10354 10352 10349 10346 10344 10340 10336 10332 10328 10324 10319 10316 10311 10307 10303 10299 10296 10292 10289 10286 10284 10281 10279 10276
10481 10481 10481 10481 10479 10479 10478 10477 10476 10475 10474 10473 10472 10471 10469 10467 10466 10465 10462 10460 10457 10456 10454 10451 10448 10446 10444 10443 10442 10441 10438 10436 10432 10429 10426 10423 10421 10419 10417 10415 10412 10409 10406 10402 10399 10395 10392 10389 10386 10383 10380 10377 10374 10371 10368 10366 10362 10360 10357 10354 10351 10349 10346 10343 10340 10337 10334 10331 10327 10323 10319 10314 10311 10306 10302 10298 10294 10290 10286 10283 10280 10277 10275 10272 10269 10267
10475 10475 10474 10474 10472 10472 10472 10471 10470 10469 10467 10467 10466 10464 10462 10461 10459 10458 10456 10454 10451 10449 10447 10444 10441 10439 10437 10436 10436 10434 10432 10430 10427 10424 10420 10417 10414 10413 10412 10409 10406 10402 10399 10396 10391 10388 10385 10382 10379 10376 10373 10369 10367 10364 10361 10357 10354 10352 10349 10346 10342 10339 10336 10334 10331 10327 10324 10321 10317 10314 10310 10306 10302 10297 10294 10289 10285 10281 10277 10274 10271 10268 10266 10263 10260 10257
10469 10469 10468 10467 10466 10465 10465 10464 10464 10462 10461 10460 10459 10457 10456 10454 10452 10451 10449 10447 10445 10443 10441 10438 10435 10432 10430 10429 10429 10429 10427 10424 10421 10418 10414 10411 10407 10407 10406 10404 10400 10396 10392 10388 10384 10381 10378 10376 10372 10369 10366 10362 10359 10356 10352 10349 10346 10343 10340 10337 10333 10330 10327 10324 10321 10318 10315 10312 10308 10304 10301 10297 10293 10289 10285 10281 10277 10272 10269 10266 10262 10260 10257 10254 10251 10248
10462 10462 10461 10460 10459 10458 10458 10458 10457 10456 10454 10453 10452 10451 10449 10447 10446 10444 10443 10441 10439 10437 10434 10432 10429 10426 10423 10421 10421 10422 10422 10419 10416 10412 10409 10405 10402 10400 10400 10398 10394 10389 10385 10381 10378 10375 10372 10369 10365 10361 10358 10354 10351 10347 10344 10341 10337 10334 10331 10327 10324 10321 10317 10314 10311 10309 10306 10302 10299 10296 10292 10289 10285 10281 10277 10272 10268 10264 10261 10257 10255 10252 10249 10246 10242 10239
10456 10456 10454 10454 10452 10452 10451 10451 10451 10449 10448 10447 10446 10444 10442 10441 10440 10438 10436 10435 10433 10431 10428 10426 10423 10421 10417 10414 10413 10414 10416 10414 10411 10407 10404 10400 10397 10394 10393 10391 10387 10383 10379 10374 10371 10368 10365 10361 10357 10354 10350 10346 10342 10339 10335 10332 10328 10325 10321 10318 10315 10312 10309 10306 10302 10299 10296 10294 10290 10287 10284 10280 10276 10272 10268 10264 10260 10257 10253 10250 10247 10244 10241 10238 10235 10231
10449 10449 10448 10447 10446 10446 10445 10445 10444 10443 10442 10441 10439 10437 10436 10434 10433 10432 10431 10429 10427 10425 10422 10420 10417 10414 10412 10409 10407 10407 10408 10407 10405 10402 10399 10396 10391 10388 10386 10384 10381 10376 10372 10368 10364 10361 10358 10354 10350 10346 10342 10338 10334 10330 10327 10323 10319 10316 10313 10309 10306 10303 10300 10297 10294 10291 10288 10285 10282 10278 10275 10271 10267 10263 10259 10256 10252 10249 10245 10242 10239 10236 10234 10231 10227 10224
10442 10442 10442 10441 10441 10439 10439 10438 10437 10437 10436 10434 10432 10431 10429 10428 10427 10426 10424 10422 10421 10419 10417 10414 10411 10409 10406 10404 10402 10401 10401 10401 10399 10397 10394 10391 10386 10382 10379 10377 10374 10369 10365 10361 10357 10354 10351 10347 10342 10339 10334 10330 10326 10322 10319 10315 10311 10308 10305 10301 10298 10295 10292 10289 10286 10283 10279 10276 10273 10269 10266 10262 10258 10254 10251 10247 10243 10240 10237 10234 10231 10228 10225 10222 10219 10216
10436 10436 10435 10436 10435 10433 10432 10431 10431 10430 10429 10428 10426 10425 10423 10422 10421 10419 10418 10417 10415 10413 10411 10408 10406 10403 10401 10399 10396 10395 10395 10394 10393 10391 10389 10386 10381 10376 10373 10371 10367 10363 10359 10354 10351 10348 10345 10341 10336 10331 10327 10323 10319 10315 10311 10307 10304 10301 10297 10294 10291 10287 10284 10281 10278 10275 10271 10268 10264 10261 10257 10253 10249 10245 10241 10237 10234 10231 10228 10225 10222 10219 10216 10212 10209 10206
10430 10429 10429 10429 10429 10427 10426 10425 10424 10424 10423 10422 10421 10419 10417 10416 10415 10413 10412 10411 10409 10407 10405 10402 10400 10397 10396 10393 10391 10389 10389 10389 10388 10387 10384 10381 10375 10370 10367 10364 10361 10357 10353 10349 10346 10342 10339 10334 10330 10325 10321 10316 10312 10307 10304 10300 10296 10292 10289 10286 10283 10280 10277 10273 10270 10267 10263 10260 10256 10252 10249 10244 10240 10236 10232 10229 10225 10222 10218 10215 10212 10209 10206 10202 10199 10196
10424 10424 10423 10423 10422 10421 10420 10419 10418 10417 10417 10416 10414 10413 10412 10411 10409 10407 10406 10405 10403 10401 10399 10396 10394 10392 10390 10387 10385 10384 10383 10383 10382 10382 10379 10376 10370 10365 10361 10359 10356 10352 10348 10344 10341 10337 10333 10328 10323 10319 10314 10309 10305 10301 10297 10293 10289 10286 10282 10279 10276 10272 10269 10266 10262 10259 10256 10252 10248 10244 10240 10236 10231 10227 10223 10219 10216 10212 10208 10205 10201 10198 10194 10192 10189 10186
10419 10418 10417 10417 10416 10415 10414 10413 10412 10411 10411 10410 10409 10407 10406 10405 10404 10402 10401 10399 10397 10395 10393 10391 10389 10386 10384 10382 10379 10377 10376 10377 10377 10376 10374 10370 10365 10360 10356 10354 10351 10347 10343 10339 10336 10332 10327 10322 10317 10312 10307 10303 10299 10294 10290 10286 10282 10278 10275 10271 10268 10265 10261 10258 10254 10251 10247 10244 10239 10235 10231 10227 10222 10218 10214 10210 10206 10202 10199 10194 10191 10187 10184 10181 10179 10176
10414 10412 10412 10411 10410 10409 10408 10407 10407 10406 10405 10404 10403 10402 10401 10399 10398 10396 10395 10393 10392 10389 10387 10386 10382 10380 10377 10376 10373 10371 10370 10371 10371 10370 10367 10364 10360 10355 10351 10349 10346 10343 10339 10334 10331 10327 10322 10317 10312 10306 10302 10297 10292 10288 10284 10279 10276 10272 10268 10264 10261 10257 10254 10251 10247 10243 10239 10235 10231 10227 10222 10218 10214 10209 10206 10201 10197 10193 10189 10185 10181 10177 10174 10172 10169 10166
10408 10407 10406 10406 10404 10404 10403 10402 10401 10401 10400 10399 10397 10396 10395 10394 10392 10391 10389 10387 10386 10384 10382 10380 10377 10374 10372 10369 10367 10364 10363 10364 10364 10363 10361 10358 10354 10349 10346 10344 10341 10338 10334 10330 10326 10322 10317 10312 10306 10301 10296 10292 10287 10282 10278 10274 10269 10265 10261 10257 10254 10250 10246 10243 10239 10236 10231 10227 10222 10218 10214 10209 10205 10201 10197 10192 10188 10184 10179 10176 10171 10168 10165 10162 10159 10156
10402 10402 10401 10400 10399 10398 10397 10397 10396 10395 10394 10394 10392 10391 10389 10388 10386 10384 10383 10382 10381 10379 10377 10374 10371 10369 10366 10364 10361 10359 10357 10356 10356 10356 10355 10352 10348 10344 10340 10337 10336 10332 10329 10324 10321 10317 10312 10307 10301 10296 10291 10287 10282 10277 10272 10267 10263 10259 10255 10251 10247 10243 10239 10236 10231 10227 10223 10219 10214 10209 10205 10201 10197 10192 10188 10184 10179 10174 10170 10166 10162 10158 10156 10153 10150 10147
10397 10396 10396 10394 10394 10393 10392 10391 10391 10390 10389 10388 10387 10386 10384 10382 10381 10379 10377 10376 10375 10374 10371 10369 10366 10364 10361 10358 10355 10352 10351 10349 10349 10349 10347 10345 10341 10337 10334 10331 10329 10326 10323 10319 10315 10311 10307 10301 10296 10291 10287 10282 10277 10272 10266 10261 10257 10252 10249 10244 10240 10236 10232 10228 10224 10219 10215 10211 10206 10201 10197 10192 10188 10184 10179 10174 10169 10165 10160 10156 10152 10149 10146 10144 10141 10139
10392 10391 10391 10389 10389 10388 10387 10386 10386 10385 10384 10382 10382 10380 10379 10377 10376 10374 10372 10371 10369 10367 10365 10362 10361 10359 10356 10353 10349 10346 10344 10342 10342 10342 10341 10338 10334 10331 10327 10325 10322 10319 10317 10314 10310 10306 10301 10296 10291 10286 10282 10276 10271 10266 10261 10256 10251 10247 10242 10238 10234 10229 10225 10221 10216 10212 10207 10202 10198 10193 10189 10184 10180 10176 10171 10166 10161 10156 10151 10147 10142 10140 10137 10136 10134 10131
10387 10386 10386 10385 10384 10383 10382 10381 10380 10379 10378 10377 10376 10375 10374 10372 10371 10369 10367 10366 10364 10361 10359 10357 10355 10353 10351 10347 10344 10340 10337 10336 10336 10336 10335 10332 10327 10324 10321 10318 10315 10312 10311 10308 10304 10300 10295 10290 10286 10281 10276 10271 10266 10261 10255 10250 10246 10241 10236 10232 10228 10223 10219 10214 10209 10204 10200 10195 10191 10186 10181 10177 10172 10168 10163 10157 10152 10147 10142 10138 10134 10131 10129 10127 10126 10124
10382 10381 10381 10380 10379 10378 10377 10376 10375 10374 10373 10372 10371 10370 10368 10367 10366 10364 10362 10360 10358 10356 10354 10351 10349 10347 10345 10342 10339 10334 10331 10329 10329 10329 10329 10326 10321 10317 10315 10312 10308 10305 10303 10302 10299 10294 10289 10284 10279 10275 10271 10266 10260 10254 10249 10245 10240 10236 10231 10227 10222 10217 10213 10208 10203 10198 10194 10189 10184 10180 10175 10171 10166 10161 10156 10151 10145 10140 10135 10131 10127 10124 10122 10120 10118 10116
10377 10377 10376 10375 10374 10374 10372 10371 10370 10369 10368 10367 10366 10364 10363 10362 10360 10358 10356 10354 10352 10351 10349 10346 10344 10341 10339 10337 10334 10330 10326 10323 10322 10322 10322 10319 10315 10311 10309 10306 10302 10298 10296 10294 10292 10289 10285 10279 10274 10269 10265 10260 10254 10249 10244 10239 10235 10231 10226 10222 10217 10212 10207 10202 10198 10193 10188 10184 10179 10174 10169 10165 10160 10154 10149 10144 10138 10133 10128 10124 10120 10117 10114 10112 10110 10107
10372 10372 10371 10371 10369 10369 10367 10366 10366 10364 10363 10362 10361 10359 10358 10356 10354 10353 10351 10349 10347 10346 10344 10341 10338 10336 10333 10331 10327 10324 10321 10319 10317 10316 10316 10313 10309 10305 10302 10299 10296 10292 10289 10286 10284 10282 10279 10274 10269 10264 10260 10255 10250 10244 10239 10234 10229 10226 10222 10217 10212 10207 10202 10197 10192 10187 10183 10179 10174 10169 10164 10159 10154 10149 10143 10137 10132 10127 10122 10117 10114 10111 10107 10105 10102 10099
10368 10367 10366 10366 10365 10364 10363 10362 10361 10359 10358 10357 10356 10354 10352 10351 10349 10347 10346 10344 10342 10341 10338 10336 10333 10330 10327 10324 10321 10318 10315 10313 10311 10311 10309 10307 10303 10299 10296 10293 10290 10286 10283 10279 10276 10273 10270 10267 10263 10259 10254 10249 10244 10239 10234 10229 10224 10220 10216 10212 10207 10202 10196 10191 10187 10182 10178 10174 10169 10164 10159 10154 10149 10144 10137 10132 10126 10121 10116 10112 10108 10104 10101 10098 10094 10091
10363 10362 10362 10361 10360 10359 10358 10357 10356 10355 10354 10352 10351 10349 10347 10346 10344 10342 10341 10339 10337 10335 10332 10330 10327 10325 10322 10319 10316 10312 10309 10306 10304 10304 10302 10300 10297 10294 10290 10287 10284 10281 10277 10273 10270 10267 10263 10259 10256 10252 10249 10243 10238 10234 10229 10225 10221 10216 10211 10206 10202 10197 10191 10186 10181 10177 10172 10168 10164 10159 10154 10149 10144 10138 10132 10126 10121 10116 10111 10107 10103 10099 10096 10091 10087 10084
10358 10357 10357 10356 10356 10354 10353 10352 10351 10350 10348 10347 10346 10344 10342 10341 10339 10337 10336 10334 10331 10329 10327 10324 10322 10319 10317 10314 10311 10307 10303 10300 10298 10297 10295 10293 10291 10288 10284 10280 10277 10274 10271 10267 10263 10261 10257 10253 10249 10246 10242 10238 10233 10228 10223 10219 10216 10211 10206 10201 10196 10191 10184 10180 10176 10172 10167 10162 10158 10153 10148 10143 10137 10132 10127 10121 10116 10111 10106 10102 10098 10094 10089 10086 10081 10077
10354 10353 10352 10352 10351 10349 10349 10347 10346 10345 10344 10342 10341 10339 10338 10336 10334 10332 10331 10328 10326 10324 10321 10318 10316 10314 10311 10309 10306 10302 10299 10296 10293 10291 10289 10286 10284 10282 10278 10274 10271 10268 10265 10261 10257 10254 10251 10247 10243 10239 10236 10232 10228 10224 10219 10214 10210 10206 10201 10196 10191 10184 10177 10172 10169 10165 10161 10157 10152 10147 10142 10137 10132 10126 10121 10115 10110 10105 10101 10097 10093 10089 10085 10080 10076 10071
10349 10349 10348 10347 10346 10345 10344 10342 10341 10340 10339 10337 10336 10335 10333 10331 10329 10327 10325 10323 10321 10318 10316 10313 10310 10307 10305 10302 10300 10297 10294 10291 10288 10285 10282 10280 10278 10276 10272 10268 10264 10261 10258 10255 10251 10247 10244 10241 10237 10233 10229 10225 10222 10218 10214 10209 10205 10201 10196 10191 10185 10178 10172 10166 10161 10157 10154 10150 10146 10141 10136 10131 10126 10120 10114 10109 10104 10100 10096 10092 10089 10084 10080 10076 10071 10067
10345 10344 10344 10342 10341 10341 10339 10338 10337 10336 10334 10333 10332 10330 10328 10326 10324 10322 10320 10317 10316 10313 10311 10307 10304 10301 10299 10296 10293 10291 10288 10286 10282 10279 10277 10274 10271 10269 10266 10262 10258 10254 10251 10247 10244 10241 10237 10233 10230 10226 10223 10219 10215 10211 10207 10204 10199 10195 10191 10185 10179 10172 10166 10159 10154 10151 10147 10143 10139 10134 10129 10124 10119 10114 10108 10102 10098 10094 10090 10087 10083 10079 10076 10071 10066 10062
10341 10340 10339 10338 10337 10336 10335 10334 10332 10331 10330 10328 10327 10325 10323 10321 10319 10317 10315 10312 10310 10307 10305 10302 10299 10296 10293 10290 10287 10284 10282 10279 10276 10274 10271 10267 10265 10262 10259 10256 10252 10247 10244 10240 10237 10233 10230 10226 10222 10218 10216 10213 10209 10205 10201 10196 10192 10188 10184 10179 10172 10166 10159 10153 10147 10143 10139 10136 10132 10127 10122 10118 10113 10108 10102 10097 10092 10088 10084 10081 10077 10074 10071 10066 10061 10056
10336 10335 10334 10334 10333 10332 10331 10329 10328 10326 10325 10324 10322 10320 10318 10316 10314 10311 10309 10307 10304 10302 10300 10297 10294 10291 10287 10284 10282 10279 10276 10273 10270 10267 10264 10261 10258 10255 10252 10249 10245 10241 10237 10233 10229 10225 10222 10218 10214 10210 10207 10205 10202 10198 10194 10190 10186 10181 10177 10171 10166 10160 10154 10148 10142 10137 10132 10128 10124 10121 10117 10112 10107 10102 10097 10091 10086 10082 10078 10074 10071 10068 10065 10061 10056 10052
10332 10331 10330 10329 10328 10327 10326 10324 10323 10322 10321 10319 10317 10315 10313 10311 10309 10306 10304 10301 10299 10296 10294 10292 10289 10285 10281 10278 10275 10272 10269 10267 10264 10261 10258 10255 10251 10248 10245 10241 10238 10234 10231 10226 10222 10217 10214 10211 10207 10202 10199 10196 10194 10191 10186 10182 10179 10174 10169 10164 10158 10152 10147 10142 10137 10132 10127 10122 10117 10114 10111 10106 10101 10096 10091 10086 10080 10076 10072 10068 10066 10062 10059 10054 10051 10047
10327 10327 10326 10324 10324 10322 10321 10320 10319 10317 10316 10314 10312 10310 10308 10306 10304 10301 10299 10296 10294 10291 10289 10286 10284 10281 10276 10272 10269 10266 10262 10260 10257 10254 10251 10248 10245 10241 10237 10234 10231 10227 10224 10220 10215 10210 10205 10202 10199 10195 10192 10189 10186 10183 10179 10176 10171 10167 10161 10156 10151 10145 10139 10134 10130 10126 10122 10117 10112 10108 10104 10100 10096 10091 10086 10080 10074 10069 10065 10062 10060 10057 10054 10049 10045 10042
10323 10322 10321 10320 10319 10318 10317 10315 10314 10312 10311 10309 10307 10305 10303 10301 10299 10297 10294 10291 10289 10286 10284 10281 10278 10275 10271 10267 10264 10260 10256 10253 10251 10248 10245 10242 10239 10235 10231 10227 10224 10220 10216 10213 10209 10204 10198 10194 10190 10187 10184 10182 10179 10176 10172 10169 10164 10160 10154 10149 10143 10138 10133 10128 10124 10120 10116 10111 10106 10102 10098 10094 10090 10086 10080 10074 10069 10064 10059 10057 10054 10052 10049 10044 10041 10037
10319 10317 10317 10316 10314 10313 10312 10310 10309 10307 10306 10304 10302 10300 10298 10296 10294 10292 10289 10286 10283 10281 10278 10276 10272 10269 10265 10262 10259 10255 10251 10247 10244 10241 10238 10235 10232 10229 10225 10221 10217 10213 10209 10206 10202 10197 10193 10188 10183 10179 10176 10174 10172 10169 10166 10162 10157 10152 10147 10142 10136 10131 10126 10122 10118 10114 10109 10104 10100 10096 10092 10088 10084 10080 10075 10069 10063 10059 10055 10052 10049 10047 10044 10040 10037 10034
10314 10314 10312 10311 10310 10309 10307 10306 10304 10302 10300 10299 10297 10295 10293 10291 10289 10286 10284 10281 10279 10276 10272 10270 10267 10264 10260 10256 10253 10250 10246 10242 10238 10234 10231 10228 10225 10221 10218 10215 10211 10207 10203 10199 10194 10191 10186 10182 10177 10173 10170 10167 10165 10162 10159 10156 10151 10146 10140 10135 10130 10124 10119 10115 10111 10107 10102 10098 10094 10089 10086 10083 10080 10076 10071 10065 10059 10054 10050 10047 10045 10042 10039 10036 10032 10030
10310 10309 10307 10307 10305 10304 10302 10301 10299 10297 10295 10293 10292 10290 10288 10286 10284 10281 10279 10276 10274 10271 10267 10264 10261 10258 10254 10251 10248 10245 10241 10237 10233 10229 10226 10222 10219 10215 10212 10208 10204 10201 10197 10193 10189 10184 10179 10175 10171 10167 10164 10161 10158 10155 10152 10149 10145 10139 10133 10128 10124 10119 10114 10109 10105 10101 10096 10092 10087 10084 10081 10078 10074 10071 10066 10061 10056 10051 10046 10044 10041 10038 10036 10032 10029 10026
10306 10304 10303 10302 10301 10299 10297 10296 10294 10292 10291 10289 10286 10284 10282 10281 10279 10276 10273 10271 10268 10265 10262 10258 10255 10252 10248 10245 10242 10239 10236 10232 10228 10224 10221 10217 10213 10209 10206 10202 10199 10195 10191 10187 10183 10178 10173 10168 10164 10159 10156 10154 10152 10149 10146 10143 10139 10133 10127 10122 10117 10114 10109 10104 10100 10096 10091 10086 10082 10079 10076 10073 10069 10066 10061 10056 10052 10047 10043 10040 10037 10034 10032 10029 10026 10023
10301 10300 10299 10297 10296 10294 10292 10291 10289 10288 10286 10284 10281 10279 10277 10275 10273 10271 10268 10265 10262 10259 10256 10252 10249 10246 10242 10239 10236 10232 10230 10226 10222 10219 10216 10212 10208 10204 10201 10197 10193 10189 10186 10181 10177 10172 10167 10162 10157 10153 10150 10148 10146 10143 10140 10137 10134 10129 10122 10117 10112 10109 10104 10100 10096 10091 10086 10081 10077 10074 10071 10068 10065 10061 10057 10052 10048 10044 10041 10037 10034 10031 10028 10026 10023 10021
10297 10296 10294 10293 10291 10290 10288 10287 10285 10283 10281 10279 10276 10274 10271 10269 10267 10265 10262 10259 10257 10254 10251 10247 10244 10240 10236 10232 10229 10226 10224 10220 10217 10213 10209 10206 10203 10199 10196 10192 10189 10185 10181 10176 10172 10167 10162 10156 10151 10146 10143 10142 10140 10137 10134 10131 10128 10124 10118 10113 10108 10104 10100 10096 10091 10086 10081 10076 10072 10069 10066 10063 10060 10056 10052 10049 10045 10041 10037 10034 10031 10027 10025 10022 10020 10017
10292 10291 10290 10288 10287 10285 10284 10282 10280 10278 10276 10273 10271 10269 10266 10264 10261 10259 10256 10254 10251 10247 10244 10241 10238 10235 10231 10227 10224 10221 10217 10214 10211 10207 10204 10201 10198 10194 10191 10187 10184 10181 10176 10171 10167 10162 10158 10152 10146 10139 10135 10134 10133 10132 10129 10126 10122 10118 10113 10108 10104 10099 10095 10091 10086 10082 10077 10072 10068 10065 10062 10059 10055 10052 10049 10045 10041 10038 10034 10031 10027 10024 10022 10019 10017 10015